Year,Month,Day,Hour,Minute,Value (Times are PST for temperature in C)
2007,05,17,00,00,7.80
2007,05,17,00,01,7.80
2007,05,17,00,02,7.80
2007,05,17,00,03,7.80
2007,05,17,00,04,7.80
2007,05,17,00,05,7.80
2007,05,17,00,06,7.80
2007,05,17,00,07,7.80
2007,05,17,00,08,7.80
2007,05,17,00,09,7.80
2007,05,17,00,10,7.80
2007,05,17,00,11,7.80
2007,05,17,00,12,7.80
2007,05,17,00,13,7.80
2007,05,17,00,14,7.80
2007,05,17,00,15,7.80
2007,05,17,00,16,7.80
2007,05,17,00,17,7.70
2007,05,17,00,18,7.70
2007,05,17,00,19,7.70
2007,05,17,00,20,7.60
2007,05,17,00,21,7.60
2007,05,17,00,22,7.60
2007,05,17,00,23,7.50
2007,05,17,00,24,7.50
2007,05,17,00,25,7.50
2007,05,17,00,26,7.50
2007,05,17,00,27,7.50
2007,05,17,00,28,7.50
2007,05,17,00,29,7.50
2007,05,17,00,30,7.50
2007,05,17,00,31,7.40
2007,05,17,00,32,7.40
2007,05,17,00,33,7.40
2007,05,17,00,34,7.40
2007,05,17,00,35,7.40
2007,05,17,00,36,7.40
2007,05,17,00,37,7.40
2007,05,17,00,38,7.30
2007,05,17,00,39,7.30
2007,05,17,00,40,7.30
2007,05,17,00,41,7.30
2007,05,17,00,42,7.30
2007,05,17,00,43,7.30
2007,05,17,00,44,7.30
2007,05,17,00,45,7.30
2007,05,17,00,46,7.30
2007,05,17,00,47,7.30
2007,05,17,00,48,7.30
2007,05,17,00,49,7.30
2007,05,17,00,50,7.30
2007,05,17,00,51,7.30
2007,05,17,00,52,7.30
2007,05,17,00,53,7.30
2007,05,17,00,54,7.30
2007,05,17,00,55,7.30
2007,05,17,00,56,7.30
2007,05,17,00,57,7.20
2007,05,17,00,58,7.20
2007,05,17,00,59,7.20
2007,05,17,01,00,7.20
2007,05,17,01,01,7.20
2007,05,17,01,02,7.10
2007,05,17,01,03,7.10
2007,05,17,01,04,7.10
2007,05,17,01,05,7.10
2007,05,17,01,06,7.10
2007,05,17,01,07,7.10
2007,05,17,01,08,7.10
2007,05,17,01,09,7.10
2007,05,17,01,10,7.10
2007,05,17,01,11,7.00
2007,05,17,01,12,7.00
2007,05,17,01,13,7.00
2007,05,17,01,14,7.00
2007,05,17,01,15,7.00
2007,05,17,01,16,7.00
2007,05,17,01,17,7.00
2007,05,17,01,18,6.90
2007,05,17,01,19,6.90
2007,05,17,01,20,6.90
2007,05,17,01,21,6.80
2007,05,17,01,22,6.80
2007,05,17,01,23,6.80
2007,05,17,01,24,6.80
2007,05,17,01,25,6.80
2007,05,17,01,26,6.70
2007,05,17,01,27,6.70
2007,05,17,01,28,6.70
2007,05,17,01,29,6.70
2007,05,17,01,30,6.70
2007,05,17,01,31,6.60
2007,05,17,01,32,6.60
2007,05,17,01,33,6.60
2007,05,17,01,34,6.60
2007,05,17,01,35,6.60
2007,05,17,01,36,6.60
2007,05,17,01,37,6.60
2007,05,17,01,38,6.60
2007,05,17,01,39,6.60
2007,05,17,01,40,6.60
2007,05,17,01,41,6.60
2007,05,17,01,42,6.60
2007,05,17,01,43,6.60
2007,05,17,01,44,6.60
2007,05,17,01,45,6.60
2007,05,17,01,46,6.60
2007,05,17,01,47,6.60
2007,05,17,01,48,6.60
2007,05,17,01,49,6.60
2007,05,17,01,50,6.60
2007,05,17,01,51,6.60
2007,05,17,01,52,6.60
2007,05,17,01,53,6.60
2007,05,17,01,54,6.60
2007,05,17,01,55,6.60
2007,05,17,01,56,6.50
2007,05,17,01,57,6.40
2007,05,17,01,58,6.40
2007,05,17,01,59,6.40
2007,05,17,02,00,6.40
2007,05,17,02,01,6.40
2007,05,17,02,02,6.40
2007,05,17,02,03,6.40
2007,05,17,02,04,6.40
2007,05,17,02,05,6.40
2007,05,17,02,06,6.30
2007,05,17,02,07,6.30
2007,05,17,02,08,6.30
2007,05,17,02,09,6.30
2007,05,17,02,10,6.30
2007,05,17,02,11,6.30
2007,05,17,02,12,6.30
2007,05,17,02,13,6.30
2007,05,17,02,14,6.30
2007,05,17,02,15,6.30
2007,05,17,02,16,6.30
2007,05,17,02,17,6.30
2007,05,17,02,18,6.30
2007,05,17,02,19,6.30
2007,05,17,02,20,6.20
2007,05,17,02,21,6.20
2007,05,17,02,22,6.20
2007,05,17,02,23,6.20
2007,05,17,02,24,6.20
2007,05,17,02,25,6.20
2007,05,17,02,26,6.20
2007,05,17,02,27,6.10
2007,05,17,02,28,6.10
2007,05,17,02,29,6.10
2007,05,17,02,30,6.00
2007,05,17,02,31,6.00
2007,05,17,02,32,6.00
2007,05,17,02,33,6.00
2007,05,17,02,34,6.00
2007,05,17,02,35,5.90
2007,05,17,02,36,5.90
2007,05,17,02,37,5.90
2007,05,17,02,38,5.90
2007,05,17,02,39,5.90
2007,05,17,02,40,5.90
2007,05,17,02,41,5.90
2007,05,17,02,42,5.90
2007,05,17,02,43,5.80
2007,05,17,02,44,5.80
2007,05,17,02,45,5.80
2007,05,17,02,46,5.80
2007,05,17,02,47,5.80
2007,05,17,02,48,5.80
2007,05,17,02,49,5.80
2007,05,17,02,50,5.80
2007,05,17,02,51,5.80
2007,05,17,02,52,5.80
2007,05,17,02,53,5.80
2007,05,17,02,54,5.80
2007,05,17,02,55,5.80
2007,05,17,02,56,5.80
2007,05,17,02,57,5.80
2007,05,17,02,58,5.80
2007,05,17,02,59,5.80
2007,05,17,03,00,5.90
2007,05,17,03,01,5.90
2007,05,17,03,02,5.90
2007,05,17,03,03,5.90
2007,05,17,03,04,5.90
2007,05,17,03,05,5.90
2007,05,17,03,06,5.90
2007,05,17,03,07,5.90
2007,05,17,03,08,5.90
2007,05,17,03,09,5.90
2007,05,17,03,10,5.90
2007,05,17,03,11,5.90
2007,05,17,03,12,5.90
2007,05,17,03,13,5.90
2007,05,17,03,14,5.80
2007,05,17,03,15,5.80
2007,05,17,03,16,5.80
2007,05,17,03,17,5.80
2007,05,17,03,18,5.80
2007,05,17,03,19,5.80
2007,05,17,03,20,5.80
2007,05,17,03,21,5.80
2007,05,17,03,22,5.80
2007,05,17,03,23,5.80
2007,05,17,03,24,5.70
2007,05,17,03,25,5.70
2007,05,17,03,26,5.70
2007,05,17,03,27,5.70
2007,05,17,03,28,5.70
2007,05,17,03,29,5.70
2007,05,17,03,30,5.70
2007,05,17,03,31,5.70
2007,05,17,03,32,5.70
2007,05,17,03,33,5.70
2007,05,17,03,34,5.60
2007,05,17,03,35,5.60
2007,05,17,03,36,5.60
2007,05,17,03,37,5.60
2007,05,17,03,38,5.60
2007,05,17,03,39,5.60
2007,05,17,03,40,5.70
2007,05,17,03,41,5.70
2007,05,17,03,42,5.70
2007,05,17,03,43,5.70
2007,05,17,03,44,5.70
2007,05,17,03,45,5.70
2007,05,17,03,46,5.70
2007,05,17,03,47,5.70
2007,05,17,03,48,5.70
2007,05,17,03,49,5.70
2007,05,17,03,50,5.70
2007,05,17,03,51,5.70
2007,05,17,03,52,5.70
2007,05,17,03,53,5.70
2007,05,17,03,54,5.70
2007,05,17,03,55,5.70
2007,05,17,03,56,5.70
2007,05,17,03,57,5.80
2007,05,17,03,58,5.80
2007,05,17,03,59,5.90
2007,05,17,04,00,5.90
2007,05,17,04,01,5.90
2007,05,17,04,02,6.00
2007,05,17,04,03,6.00
2007,05,17,04,04,6.00
2007,05,17,04,05,6.00
2007,05,17,04,06,6.00
2007,05,17,04,07,5.90
2007,05,17,04,08,5.90
2007,05,17,04,09,5.90
2007,05,17,04,10,5.80
2007,05,17,04,11,5.80
2007,05,17,04,12,5.80
2007,05,17,04,13,5.70
2007,05,17,04,14,5.70
2007,05,17,04,15,5.70
2007,05,17,04,16,5.70
2007,05,17,04,17,5.70
2007,05,17,04,18,5.70
2007,05,17,04,19,5.70
2007,05,17,04,20,5.70
2007,05,17,04,21,5.70
2007,05,17,04,22,5.70
2007,05,17,04,23,5.70
2007,05,17,04,24,5.70
2007,05,17,04,25,5.70
2007,05,17,04,26,5.70
2007,05,17,04,27,5.70
2007,05,17,04,28,5.70
2007,05,17,04,29,5.70
2007,05,17,04,30,5.70
2007,05,17,04,31,5.70
2007,05,17,04,32,5.70
2007,05,17,04,33,5.70
2007,05,17,04,34,5.70
2007,05,17,04,35,5.70
2007,05,17,04,36,5.70
2007,05,17,04,37,5.70
2007,05,17,04,38,5.70
2007,05,17,04,39,5.70
2007,05,17,04,40,5.70
2007,05,17,04,41,5.70
2007,05,17,04,42,5.70
2007,05,17,04,43,5.70
2007,05,17,04,44,5.70
2007,05,17,04,45,5.70
2007,05,17,04,46,5.70
2007,05,17,04,47,5.70
2007,05,17,04,48,5.70
2007,05,17,04,49,5.70
2007,05,17,04,50,5.70
2007,05,17,04,51,5.60
2007,05,17,04,52,5.60
2007,05,17,04,53,5.60
2007,05,17,04,54,5.60
2007,05,17,04,55,5.60
2007,05,17,04,56,5.60
2007,05,17,04,57,5.60
2007,05,17,04,58,5.60
2007,05,17,04,59,5.60
2007,05,17,05,00,5.60
2007,05,17,05,01,5.60
2007,05,17,05,02,5.60
2007,05,17,05,03,5.60
2007,05,17,05,04,5.60
2007,05,17,05,05,5.70
2007,05,17,05,06,5.70
2007,05,17,05,07,5.70
2007,05,17,05,08,5.70
2007,05,17,05,09,5.60
2007,05,17,05,10,5.60
2007,05,17,05,11,5.60
2007,05,17,05,12,5.70
2007,05,17,05,13,5.70
2007,05,17,05,14,5.70
2007,05,17,05,15,5.70
2007,05,17,05,16,5.70
2007,05,17,05,17,5.60
2007,05,17,05,18,5.60
2007,05,17,05,19,5.60
2007,05,17,05,20,5.60
2007,05,17,05,21,5.60
2007,05,17,05,22,5.50
2007,05,17,05,23,5.60
2007,05,17,05,24,5.60
2007,05,17,05,25,5.60
2007,05,17,05,26,5.60
2007,05,17,05,27,5.70
2007,05,17,05,28,5.70
2007,05,17,05,29,5.70
2007,05,17,05,30,5.70
2007,05,17,05,31,5.70
2007,05,17,05,32,5.70
2007,05,17,05,33,5.70
2007,05,17,05,34,5.70
2007,05,17,05,35,5.70
2007,05,17,05,36,5.70
2007,05,17,05,37,5.70
2007,05,17,05,38,5.70
2007,05,17,05,39,5.70
2007,05,17,05,40,5.70
2007,05,17,05,41,5.70
2007,05,17,05,42,5.70
2007,05,17,05,43,5.70
2007,05,17,05,44,5.70
2007,05,17,05,45,5.70
2007,05,17,05,46,5.70
2007,05,17,05,47,5.70
2007,05,17,05,48,5.70
2007,05,17,05,49,5.70
2007,05,17,05,50,5.70
2007,05,17,05,51,5.70
2007,05,17,05,52,5.70
2007,05,17,05,53,5.70
2007,05,17,05,54,5.70
2007,05,17,05,55,5.70
2007,05,17,05,56,5.70
2007,05,17,05,57,5.70
2007,05,17,05,58,5.70
2007,05,17,05,59,5.70
2007,05,17,06,00,5.80
2007,05,17,06,01,5.80
2007,05,17,06,02,5.80
2007,05,17,06,03,5.80
2007,05,17,06,04,5.80
2007,05,17,06,05,5.80
2007,05,17,06,06,5.80
2007,05,17,06,07,5.80
2007,05,17,06,08,5.80
2007,05,17,06,09,5.80
2007,05,17,06,10,5.80
2007,05,17,06,11,5.80
2007,05,17,06,12,5.70
2007,05,17,06,13,5.70
2007,05,17,06,14,5.70
2007,05,17,06,15,5.70
2007,05,17,06,16,5.80
2007,05,17,06,17,5.80
2007,05,17,06,18,5.80
2007,05,17,06,19,5.80
2007,05,17,06,20,5.80
2007,05,17,06,21,5.80
2007,05,17,06,22,5.80
2007,05,17,06,23,5.80
2007,05,17,06,24,5.80
2007,05,17,06,25,5.80
2007,05,17,06,26,5.80
2007,05,17,06,27,5.80
2007,05,17,06,28,5.80
2007,05,17,06,29,5.80
2007,05,17,06,30,5.80
2007,05,17,06,31,5.90
2007,05,17,06,32,5.90
2007,05,17,06,33,5.90
2007,05,17,06,34,6.00
2007,05,17,06,35,6.00
2007,05,17,06,36,6.00
2007,05,17,06,37,6.10
2007,05,17,06,38,6.10
2007,05,17,06,39,6.20
2007,05,17,06,40,6.20
2007,05,17,06,41,6.20
2007,05,17,06,42,6.20
2007,05,17,06,43,6.20
2007,05,17,06,44,6.30
2007,05,17,06,45,6.30
2007,05,17,06,46,6.40
2007,05,17,06,47,6.40
2007,05,17,06,48,6.40
2007,05,17,06,49,6.40
2007,05,17,06,50,6.50
2007,05,17,06,51,6.60
2007,05,17,06,52,6.60
2007,05,17,06,53,6.60
2007,05,17,06,54,6.70
2007,05,17,06,55,6.70
2007,05,17,06,56,6.80
2007,05,17,06,57,6.80
2007,05,17,06,58,6.90
2007,05,17,06,59,6.90
2007,05,17,07,00,7.00
2007,05,17,07,01,7.10
2007,05,17,07,02,7.20
2007,05,17,07,03,7.20
2007,05,17,07,04,7.30
2007,05,17,07,05,7.30
2007,05,17,07,06,7.40
2007,05,17,07,07,7.40
2007,05,17,07,08,7.50
2007,05,17,07,09,7.60
2007,05,17,07,10,7.60
2007,05,17,07,11,7.70
2007,05,17,07,12,7.70
2007,05,17,07,13,7.80
2007,05,17,07,14,7.80
2007,05,17,07,15,7.90
2007,05,17,07,16,7.90
2007,05,17,07,17,8.00
2007,05,17,07,18,8.00
2007,05,17,07,19,8.10
2007,05,17,07,20,8.10
2007,05,17,07,21,8.20
2007,05,17,07,22,8.20
2007,05,17,07,23,8.20
2007,05,17,07,24,8.30
2007,05,17,07,25,8.40
2007,05,17,07,26,8.40
2007,05,17,07,27,8.50
2007,05,17,07,28,8.50
2007,05,17,07,29,8.60
2007,05,17,07,30,8.60
2007,05,17,07,31,8.70
2007,05,17,07,32,8.70
2007,05,17,07,33,8.70
2007,05,17,07,34,8.80
2007,05,17,07,35,8.80
2007,05,17,07,36,8.80
2007,05,17,07,37,8.90
2007,05,17,07,38,8.90
2007,05,17,07,39,9.00
2007,05,17,07,40,9.00
2007,05,17,07,41,9.10
2007,05,17,07,42,9.10
2007,05,17,07,43,9.20
2007,05,17,07,44,9.20
2007,05,17,07,45,9.20
2007,05,17,07,46,9.30
2007,05,17,07,47,9.30
2007,05,17,07,48,9.40
2007,05,17,07,49,9.40
2007,05,17,07,50,9.50
2007,05,17,07,51,9.50
2007,05,17,07,52,9.60
2007,05,17,07,53,9.60
2007,05,17,07,54,9.70
2007,05,17,07,55,9.70
2007,05,17,07,56,9.70
2007,05,17,07,57,9.80
2007,05,17,07,58,9.80
2007,05,17,07,59,9.90
2007,05,17,08,00,9.90
2007,05,17,08,01,9.90
2007,05,17,08,02,10.00
2007,05,17,08,03,10.10
2007,05,17,08,04,10.10
2007,05,17,08,05,10.10
2007,05,17,08,06,10.20
2007,05,17,08,07,10.20
2007,05,17,08,08,10.30
2007,05,17,08,09,10.30
2007,05,17,08,10,10.40
2007,05,17,08,11,10.40
2007,05,17,08,12,10.60
2007,05,17,08,13,10.60
2007,05,17,08,14,10.60
2007,05,17,08,15,10.70
2007,05,17,08,16,10.80
2007,05,17,08,17,10.80
2007,05,17,08,18,10.90
2007,05,17,08,19,10.90
2007,05,17,08,20,10.90
2007,05,17,08,21,10.90
2007,05,17,08,22,11.00
2007,05,17,08,23,11.10
2007,05,17,08,24,11.10
2007,05,17,08,25,11.10
2007,05,17,08,26,11.20
2007,05,17,08,27,11.20
2007,05,17,08,28,11.30
2007,05,17,08,29,11.30
2007,05,17,08,30,11.30
2007,05,17,08,31,11.40
2007,05,17,08,32,11.40
2007,05,17,08,33,11.40
2007,05,17,08,34,11.40
2007,05,17,08,35,11.40
2007,05,17,08,36,11.40
2007,05,17,08,37,11.60
2007,05,17,08,38,11.60
2007,05,17,08,39,11.60
2007,05,17,08,40,11.60
2007,05,17,08,41,11.60
2007,05,17,08,42,11.60
2007,05,17,08,43,11.60
2007,05,17,08,44,11.60
2007,05,17,08,45,11.60
2007,05,17,08,46,11.60
2007,05,17,08,47,11.60
2007,05,17,08,48,11.50
2007,05,17,08,49,11.40
2007,05,17,08,50,11.40
2007,05,17,08,51,11.40
2007,05,17,08,52,11.40
2007,05,17,08,53,11.40
2007,05,17,08,54,11.40
2007,05,17,08,55,11.50
2007,05,17,08,56,11.60
2007,05,17,08,57,11.60
2007,05,17,08,58,11.70
2007,05,17,08,59,11.70
2007,05,17,09,00,11.70
2007,05,17,09,01,11.80
2007,05,17,09,02,11.80
2007,05,17,09,03,11.80
2007,05,17,09,04,11.80
2007,05,17,09,05,11.80
2007,05,17,09,06,11.90
2007,05,17,09,07,11.90
2007,05,17,09,08,11.90
2007,05,17,09,09,12.00
2007,05,17,09,10,12.00
2007,05,17,09,11,12.00
2007,05,17,09,12,12.00
2007,05,17,09,13,12.00
2007,05,17,09,14,12.00
2007,05,17,09,15,11.90
2007,05,17,09,16,12.00
2007,05,17,09,17,12.00
2007,05,17,09,18,12.00
2007,05,17,09,19,12.00
2007,05,17,09,20,12.00
2007,05,17,09,21,12.00
2007,05,17,09,22,12.00
2007,05,17,09,23,12.10
2007,05,17,09,24,12.10
2007,05,17,09,25,12.10
2007,05,17,09,26,12.10
2007,05,17,09,27,12.10
2007,05,17,09,28,12.10
2007,05,17,09,29,12.10
2007,05,17,09,30,12.10
2007,05,17,09,31,12.10
2007,05,17,09,32,12.10
2007,05,17,09,33,12.10
2007,05,17,09,34,12.20
2007,05,17,09,35,12.20
2007,05,17,09,36,12.20
2007,05,17,09,37,12.20
2007,05,17,09,38,12.20
2007,05,17,09,39,12.20
2007,05,17,09,40,12.20
2007,05,17,09,41,12.30
2007,05,17,09,42,12.30
2007,05,17,09,43,12.30
2007,05,17,09,44,12.30
2007,05,17,09,45,12.30
2007,05,17,09,46,12.30
2007,05,17,09,47,12.30
2007,05,17,09,48,12.30
2007,05,17,09,49,12.40
2007,05,17,09,50,12.40
2007,05,17,09,51,12.40
2007,05,17,09,52,12.40
2007,05,17,09,53,12.40
2007,05,17,09,54,12.50
2007,05,17,09,55,12.60
2007,05,17,09,56,12.70
2007,05,17,09,57,12.70
2007,05,17,09,58,12.80
2007,05,17,09,59,12.80
2007,05,17,10,00,12.80
2007,05,17,10,01,12.90
2007,05,17,10,02,13.00
2007,05,17,10,03,13.00
2007,05,17,10,04,13.10
2007,05,17,10,05,13.10
2007,05,17,10,06,13.10
2007,05,17,10,07,13.00
2007,05,17,10,08,13.00
2007,05,17,10,09,13.00
2007,05,17,10,10,13.10
2007,05,17,10,11,13.10
2007,05,17,10,12,13.10
2007,05,17,10,13,13.10
2007,05,17,10,14,13.10
2007,05,17,10,15,13.10
2007,05,17,10,16,13.10
2007,05,17,10,17,13.10
2007,05,17,10,18,13.10
2007,05,17,10,19,13.10
2007,05,17,10,20,13.10
2007,05,17,10,21,13.20
2007,05,17,10,22,13.10
2007,05,17,10,23,13.00
2007,05,17,10,24,13.00
2007,05,17,10,25,13.00
2007,05,17,10,26,12.90
2007,05,17,10,27,12.90
2007,05,17,10,28,12.90
2007,05,17,10,29,12.90
2007,05,17,10,30,12.80
2007,05,17,10,31,12.80
2007,05,17,10,32,12.80
2007,05,17,10,33,12.80
2007,05,17,10,34,12.90
2007,05,17,10,35,12.90
2007,05,17,10,36,12.90
2007,05,17,10,37,13.00
2007,05,17,10,38,13.10
2007,05,17,10,39,13.00
2007,05,17,10,40,12.90
2007,05,17,10,41,12.90
2007,05,17,10,42,12.90
2007,05,17,10,43,12.90
2007,05,17,10,44,12.90
2007,05,17,10,45,13.00
2007,05,17,10,46,13.00
2007,05,17,10,47,13.10
2007,05,17,10,48,13.20
2007,05,17,10,49,13.20
2007,05,17,10,50,13.20
2007,05,17,10,51,13.10
2007,05,17,10,52,13.20
2007,05,17,10,53,13.30
2007,05,17,10,54,13.30
2007,05,17,10,55,13.30
2007,05,17,10,56,13.30
2007,05,17,10,57,13.30
2007,05,17,10,58,13.20
2007,05,17,10,59,13.10
2007,05,17,11,00,13.20
2007,05,17,11,01,13.20
2007,05,17,11,02,13.30
2007,05,17,11,03,13.30
2007,05,17,11,04,13.20
2007,05,17,11,05,13.20
2007,05,17,11,06,13.10
2007,05,17,11,07,13.10
2007,05,17,11,08,13.10
2007,05,17,11,09,13.30
2007,05,17,11,10,13.40
2007,05,17,11,11,13.50
2007,05,17,11,12,13.50
2007,05,17,11,13,13.40
2007,05,17,11,14,13.30
2007,05,17,11,15,13.30
2007,05,17,11,16,13.30
2007,05,17,11,17,13.30
2007,05,17,11,18,13.30
2007,05,17,11,19,13.50
2007,05,17,11,20,13.60
2007,05,17,11,21,13.60
2007,05,17,11,22,13.60
2007,05,17,11,23,13.70
2007,05,17,11,24,13.70
2007,05,17,11,25,13.70
2007,05,17,11,26,13.80
2007,05,17,11,27,13.90
2007,05,17,11,28,13.90
2007,05,17,11,29,14.00
2007,05,17,11,30,14.10
2007,05,17,11,31,14.00
2007,05,17,11,32,14.00
2007,05,17,11,33,14.00
2007,05,17,11,34,14.00
2007,05,17,11,35,14.00
2007,05,17,11,36,13.80
2007,05,17,11,37,13.70
2007,05,17,11,38,13.70
2007,05,17,11,39,13.90
2007,05,17,11,40,14.00
2007,05,17,11,41,14.00
2007,05,17,11,42,13.90
2007,05,17,11,43,13.70
2007,05,17,11,44,13.50
2007,05,17,11,45,13.40
2007,05,17,11,46,13.40
2007,05,17,11,47,13.50
2007,05,17,11,48,13.60
2007,05,17,11,49,13.50
2007,05,17,11,50,13.50
2007,05,17,11,51,13.40
2007,05,17,11,52,13.30
2007,05,17,11,53,13.50
2007,05,17,11,54,13.70
2007,05,17,11,55,13.90
2007,05,17,11,56,14.00
2007,05,17,11,57,14.00
2007,05,17,11,58,14.10
2007,05,17,11,59,14.20
2007,05,17,12,00,14.10
2007,05,17,12,01,14.00
2007,05,17,12,02,14.00
2007,05,17,12,03,13.90
2007,05,17,12,04,13.70
2007,05,17,12,05,13.80
2007,05,17,12,06,13.80
2007,05,17,12,07,13.70
2007,05,17,12,08,13.70
2007,05,17,12,09,13.60
2007,05,17,12,10,13.60
2007,05,17,12,11,13.60
2007,05,17,12,12,13.60
2007,05,17,12,13,13.60
2007,05,17,12,14,13.50
2007,05,17,12,15,13.50
2007,05,17,12,16,13.50
2007,05,17,12,17,13.50
2007,05,17,12,18,13.60
2007,05,17,12,19,13.60
2007,05,17,12,20,13.60
2007,05,17,12,21,13.60
2007,05,17,12,22,13.60
2007,05,17,12,23,13.50
2007,05,17,12,24,13.40
2007,05,17,12,25,13.40
2007,05,17,12,26,13.50
2007,05,17,12,27,13.40
2007,05,17,12,28,13.50
2007,05,17,12,29,13.60
2007,05,17,12,30,13.60
2007,05,17,12,31,13.60
2007,05,17,12,32,13.60
2007,05,17,12,33,13.60
2007,05,17,12,34,13.70
2007,05,17,12,35,13.70
2007,05,17,12,36,13.70
2007,05,17,12,37,13.70
2007,05,17,12,38,13.70
2007,05,17,12,39,13.70
2007,05,17,12,40,13.50
2007,05,17,12,41,13.60
2007,05,17,12,42,13.70
2007,05,17,12,43,13.70
2007,05,17,12,44,13.80
2007,05,17,12,45,13.90
2007,05,17,12,46,14.10
2007,05,17,12,47,14.00
2007,05,17,12,48,14.00
2007,05,17,12,49,13.90
2007,05,17,12,50,13.90
2007,05,17,12,51,13.90
2007,05,17,12,52,13.90
2007,05,17,12,53,13.90
2007,05,17,12,54,13.90
2007,05,17,12,55,14.00
2007,05,17,12,56,14.10
2007,05,17,12,57,14.20
2007,05,17,12,58,14.20
2007,05,17,12,59,14.20
2007,05,17,13,00,14.20
2007,05,17,13,01,14.40
2007,05,17,13,02,14.40
2007,05,17,13,03,14.40
2007,05,17,13,04,14.30
2007,05,17,13,05,14.20
2007,05,17,13,06,14.20
2007,05,17,13,07,14.10
2007,05,17,13,08,14.00
2007,05,17,13,09,14.00
2007,05,17,13,10,14.00
2007,05,17,13,11,14.00
2007,05,17,13,12,14.10
2007,05,17,13,13,14.20
2007,05,17,13,14,14.20
2007,05,17,13,15,14.20
2007,05,17,13,16,14.30
2007,05,17,13,17,14.20
2007,05,17,13,18,14.40
2007,05,17,13,19,14.40
2007,05,17,13,20,14.40
2007,05,17,13,21,14.60
2007,05,17,13,22,14.60
2007,05,17,13,23,14.60
2007,05,17,13,24,14.80
2007,05,17,13,25,14.90
2007,05,17,13,26,14.90
2007,05,17,13,27,14.90
2007,05,17,13,28,14.90
2007,05,17,13,29,15.00
2007,05,17,13,30,15.10
2007,05,17,13,31,15.20
2007,05,17,13,32,15.00
2007,05,17,13,33,14.80
2007,05,17,13,34,14.80
2007,05,17,13,35,14.80
2007,05,17,13,36,14.90
2007,05,17,13,37,14.80
2007,05,17,13,38,14.80
2007,05,17,13,39,14.80
2007,05,17,13,40,14.70
2007,05,17,13,41,14.60
2007,05,17,13,42,14.60
2007,05,17,13,43,14.60
2007,05,17,13,44,14.60
2007,05,17,13,45,14.60
2007,05,17,13,46,14.70
2007,05,17,13,47,14.80
2007,05,17,13,48,14.80
2007,05,17,13,49,14.80
2007,05,17,13,50,14.80
2007,05,17,13,51,15.00
2007,05,17,13,52,15.20
2007,05,17,13,53,15.30
2007,05,17,13,54,15.30
2007,05,17,13,55,15.40
2007,05,17,13,56,15.40
2007,05,17,13,57,15.60
2007,05,17,13,58,15.70
2007,05,17,13,59,15.80
2007,05,17,14,00,15.60
2007,05,17,14,01,15.40
2007,05,17,14,02,15.20
2007,05,17,14,03,15.10
2007,05,17,14,04,15.10
2007,05,17,14,05,15.10
2007,05,17,14,06,15.10
2007,05,17,14,07,15.20
2007,05,17,14,08,15.30
2007,05,17,14,09,15.20
2007,05,17,14,10,15.20
2007,05,17,14,11,15.30
2007,05,17,14,12,15.40
2007,05,17,14,13,15.40
2007,05,17,14,14,15.40
2007,05,17,14,15,15.20
2007,05,17,14,16,15.10
2007,05,17,14,17,15.00
2007,05,17,14,18,15.00
2007,05,17,14,19,14.90
2007,05,17,14,20,15.00
2007,05,17,14,21,15.00
2007,05,17,14,22,15.10
2007,05,17,14,23,15.00
2007,05,17,14,24,15.00
2007,05,17,14,25,15.00
2007,05,17,14,26,15.20
2007,05,17,14,27,15.30
2007,05,17,14,28,15.20
2007,05,17,14,29,15.20
2007,05,17,14,30,15.20
2007,05,17,14,31,15.20
2007,05,17,14,32,15.10
2007,05,17,14,33,15.10
2007,05,17,14,34,15.30
2007,05,17,14,35,15.40
2007,05,17,14,36,15.60
2007,05,17,14,37,15.80
2007,05,17,14,38,15.80
2007,05,17,14,39,15.90
2007,05,17,14,40,15.80
2007,05,17,14,41,15.80
2007,05,17,14,42,15.70
2007,05,17,14,43,15.70
2007,05,17,14,44,15.60
2007,05,17,14,45,15.50
2007,05,17,14,46,15.40
2007,05,17,14,47,15.30
2007,05,17,14,48,15.20
2007,05,17,14,49,15.10
2007,05,17,14,50,15.20
2007,05,17,14,51,15.40
2007,05,17,14,52,15.60
2007,05,17,14,53,15.70
2007,05,17,14,54,15.70
2007,05,17,14,55,15.70
2007,05,17,14,56,15.70
2007,05,17,14,57,15.60
2007,05,17,14,58,15.70
2007,05,17,14,59,15.60
2007,05,17,15,00,15.60
2007,05,17,15,01,15.70
2007,05,17,15,02,15.70
2007,05,17,15,03,15.70
2007,05,17,15,04,15.80
2007,05,17,15,05,15.80
2007,05,17,15,06,15.80
2007,05,17,15,07,15.90
2007,05,17,15,08,16.00
2007,05,17,15,09,15.90
2007,05,17,15,10,15.90
2007,05,17,15,11,15.90
2007,05,17,15,12,16.10
2007,05,17,15,13,16.10
2007,05,17,15,14,16.20
2007,05,17,15,15,16.30
2007,05,17,15,16,16.40
2007,05,17,15,17,16.60
2007,05,17,15,18,16.70
2007,05,17,15,19,16.80
2007,05,17,15,20,16.80
2007,05,17,15,21,16.80
2007,05,17,15,22,16.80
2007,05,17,15,23,16.70
2007,05,17,15,24,16.70
2007,05,17,15,25,16.70
2007,05,17,15,26,16.90
2007,05,17,15,27,17.00
2007,05,17,15,28,17.20
2007,05,17,15,29,17.30
2007,05,17,15,30,17.30
2007,05,17,15,31,17.30
2007,05,17,15,32,17.30
2007,05,17,15,33,17.30
2007,05,17,15,34,17.30
2007,05,17,15,35,17.30
2007,05,17,15,36,17.20
2007,05,17,15,37,17.20
2007,05,17,15,38,17.30
2007,05,17,15,39,17.30
2007,05,17,15,40,17.40
2007,05,17,15,41,17.30
2007,05,17,15,42,17.30
2007,05,17,15,43,17.50
2007,05,17,15,44,17.50
2007,05,17,15,45,17.50
2007,05,17,15,46,17.60
2007,05,17,15,47,17.70
2007,05,17,15,48,17.80
2007,05,17,15,49,17.90
2007,05,17,15,50,18.10
2007,05,17,15,51,18.20
2007,05,17,15,52,18.20
2007,05,17,15,53,18.20
2007,05,17,15,54,18.20
2007,05,17,15,55,18.20
2007,05,17,15,56,18.20
2007,05,17,15,57,18.20
2007,05,17,15,58,18.30
2007,05,17,15,59,18.30
2007,05,17,16,00,18.40
2007,05,17,16,01,18.40
2007,05,17,16,02,18.30
2007,05,17,16,03,18.20
2007,05,17,16,04,18.20
2007,05,17,16,05,18.20
2007,05,17,16,06,18.10
2007,05,17,16,07,18.10
2007,05,17,16,08,18.10
2007,05,17,16,09,18.10
2007,05,17,16,10,18.00
2007,05,17,16,11,17.90
2007,05,17,16,12,17.90
2007,05,17,16,13,17.90
2007,05,17,16,14,17.90
2007,05,17,16,15,17.90
2007,05,17,16,16,18.00
2007,05,17,16,17,18.10
2007,05,17,16,18,18.30
2007,05,17,16,19,18.50
2007,05,17,16,20,18.50
2007,05,17,16,21,18.60
2007,05,17,16,22,18.50
2007,05,17,16,23,18.50
2007,05,17,16,24,18.50
2007,05,17,16,25,18.50
2007,05,17,16,26,18.50
2007,05,17,16,27,18.50
2007,05,17,16,28,18.50
2007,05,17,16,29,18.60
2007,05,17,16,30,18.50
2007,05,17,16,31,18.50
2007,05,17,16,32,18.50
2007,05,17,16,33,18.60
2007,05,17,16,34,18.60
2007,05,17,16,35,18.60
2007,05,17,16,36,18.60
2007,05,17,16,37,18.50
2007,05,17,16,38,18.50
2007,05,17,16,39,18.50
2007,05,17,16,40,18.40
2007,05,17,16,41,18.40
2007,05,17,16,42,18.50
2007,05,17,16,43,18.60
2007,05,17,16,44,18.60
2007,05,17,16,45,18.60
2007,05,17,16,46,18.60
2007,05,17,16,47,18.60
2007,05,17,16,48,18.60
2007,05,17,16,49,18.70
2007,05,17,16,50,18.70
2007,05,17,16,51,18.80
2007,05,17,16,52,18.70
2007,05,17,16,53,18.70
2007,05,17,16,54,18.70
2007,05,17,16,55,18.70
2007,05,17,16,56,18.50
2007,05,17,16,57,18.40
2007,05,17,16,58,18.20
2007,05,17,16,59,18.20
2007,05,17,17,00,18.30
2007,05,17,17,01,18.30
2007,05,17,17,02,18.30
2007,05,17,17,03,18.30
2007,05,17,17,04,18.40
2007,05,17,17,05,18.40
2007,05,17,17,06,18.50
2007,05,17,17,07,18.60
2007,05,17,17,08,18.60
2007,05,17,17,09,18.70
2007,05,17,17,10,18.70
2007,05,17,17,11,18.70
2007,05,17,17,12,18.70
2007,05,17,17,13,18.70
2007,05,17,17,14,18.60
2007,05,17,17,15,18.60
2007,05,17,17,16,18.70
2007,05,17,17,17,18.60
2007,05,17,17,18,18.60
2007,05,17,17,19,18.60
2007,05,17,17,20,18.60
2007,05,17,17,21,18.70
2007,05,17,17,22,18.70
2007,05,17,17,23,18.70
2007,05,17,17,24,18.70
2007,05,17,17,25,18.70
2007,05,17,17,26,18.70
2007,05,17,17,27,18.70
2007,05,17,17,28,18.60
2007,05,17,17,29,18.60
2007,05,17,17,30,18.50
2007,05,17,17,31,18.40
2007,05,17,17,32,18.50
2007,05,17,17,33,18.50
2007,05,17,17,34,18.50
2007,05,17,17,35,18.50
2007,05,17,17,36,18.50
2007,05,17,17,37,18.50
2007,05,17,17,38,18.60
2007,05,17,17,39,18.60
2007,05,17,17,40,18.50